IUS R/B(1), 25868

Orbit data source: Space-Track

IUS R/B(1), 25868 is space debris originally from a launch on Fri, 23 Jul 1999 UTC launched from the Air Force Eastern Test Range (AFETR). Debris objects in space refer to the collection of defunct objects orbiting the Earth. Examples of debris include non-operational satellites, rocket bodies, and fragments generated from explosions, collisions, or faulty payload assembly.

Loading next visibility...
IUS R/B(1) details
Identifier
25868, 1999-040C
Orbit
Active
Last TLE update20 hours ago
Origin
Flag of USGSFC (US)
ManufacturerPW CSD
MissionSpacecraft
Bus & MotorORBUS 21, ORBUS 21
Mass1,164 kg wet, 1,164 kg dry
Launch date (UTC)
1999-07-23 (25 years ago)
Launch vehicleUnknown
Launch site
Air Force Eastern Test Range (AFETR)
Object type
Payload
Rocket body
Debris
Shape & HBRCyl, Unknown HBR
Radar Cross Section8.491 m², Large (>1 m²)

Expand to show TLE details & history

TLE from 20 hours ago
0 IUS R/B(1)
1 25868U 99040C   24360.57569016  .00014339  00000-0  10861-2 0  9993
2 25868  28.4456 162.5259 4412364 318.3621  15.3231  6.68249040577359
Epoch: 2024-12-25T13:48Z
Definitive object data (Epoch: 2024-12-25T13:48:59.629Z)
Latitude-0.00004°
Longitude-139.29009°
Altitude833.558 km
Speed8.779 km/s
True Right ascension10h 50m 06s
True Declination0° 00' 00"
Sunlit
Object was in daylight at TLE epoch
Visualization TLE readout
Latitude9.58933°
Longitude21.31024°
Altitude10,062.035 km
Speed3.876 km/s
Apparent Right ascension21h 27m 42s
Apparent Declination-3° 37' 57"
Sunlit
Object is in daylight
Visualization observer readout
Local Sidereal Time09:11:48
Azimuth353.317° N
Elevation-53.539°
Doppler factor1
Orbital elements
Apogee altitude10,786.512 km
Perigee altitude276.553 km
Semi-major axis11,909.67 km
Eccentricity0.4412364
Inclination28.4456°
RAAN162.5259°
Arg. of periapsis318.3621°
True anomaly41.68341°
Mean anomaly15.3231°
Eccentric anomaly26.67082°
Mean motion1.66991 °/min
BSTAR0.0010861
Orbital period215.58 mins
Loading maneuver chart data...
Loading historical data...
Loading historical data...
Loading historical data...
Loading historical data...
Loading historical data...
Loading historical data...
Loading historical data...

IUS R/B(1) Visibility forecast

Observer location: undefined°, undefined

Span
Click to sort rows by Start time (UTC) header in descending order
Start Az.
Max El. time (UTC)
Max El. Az.
Max El.
End time (UTC)
End Az.
84 mins2024-12-26 15:06:43.376Z228.733° WSW2024-12-26 15:22:43.376Z151.602° SSE40.184°2024-12-26 16:30:43.376Z91.48° ESE
126 mins2024-12-26 18:56:43.376Z266.508° W2024-12-26 19:38:43.376Z197.157° SSW42.196°2024-12-26 21:02:43.376Z131.362° SE
106 mins2024-12-26 23:05:43.376Z276.969° WNW2024-12-27 00:02:43.376Z237.893° WSW26.243°2024-12-27 00:51:43.376Z187.621° SSW
|